Location: Hungerford
(51.4167°N, 1.5167°W)
Time: 13:24:42
(UTC+00:00)

Lacrosse 4 Rocket - Pass Details

Date: 18 September 2020
Orbit: 543 x 615 km, 68.0° (Epoch: 21 October)

Event Time Altitude Azimuth Distance (km) Brightness Sun altitude
Rises 22:35:34 0° 320° (NW) 2,718 5.8 -34.2°
Reaches altitude 10° 22:37:50 10° 313° (NW) 1,824 4.7 -34.4°
Enters shadow 22:38:27 14° 310° (NW) 1,587 4.3 -34.4°
